Regional Weather Roundup
Issued by NWS

Home | Current Version | Previous Version | Graphics & Text | Print | Product List | Glossary On
Versions: 1 2 3 4 5 6 7 8 9 10 11 12 13 14 15 16 17 18 19 20 21 22 23 24 25 26 27 28 29 30 31 32 33 34 35 36 37 38 39 40 41 42 43 44 45 46 47 48 49 50
000
ASUS45 KBOU 251707
RWRCO

WEATHER ROUNDUP FOR COLORADO
NATIONAL WEATHER SERVICE DENVER/BOULDER CO
1100 AM MDT THU AUG 25 2016

NOTE: "FAIR" INDICATES FEW OR NO CLOUDS BELOW 12000 FEET WITH NO
SIGNIFICANT WEATHER AND/OR OBSTRUCTIONS TO VISIBILITY.

COZ001>005-013-030-031-251800-
...NORTHWEST COLORADO...

CITY           SKY/WX    TMP DP  RH WIND       PRES   REMARKS
CRAIG          FAIR      62  39  42 CALM      30.28F
HAYDEN         FAIR      61  36  39 CALM      30.29F
MEEKER         FAIR      59  40  49 VRB3      30.28F
MOUNT WERNER   NOT AVBL
STEAMBOAT SPGS FAIR      63  38  40 SW3       30.29F
WALDEN         FAIR      59  32  36 S5        30.35F
$$

COZ006>008-011-251800-
...WEST CENTRAL VALLEYS...

CITY           SKY/WX    TMP DP  RH WIND       PRES   REMARKS
GRAND JUNCTION CLOUDY    64  46  52 SW7       30.22S
MONTROSE       FAIR      67  45  45 NW6       30.26S
EAGLE          SUNNY     64  37  36 CALM      30.29F
RIFLE          FAIR      67  41  38 NW3       30.24S
DELTA          FAIR      73  44  35 CALM      30.23S
NUCLA          NOT AVBL
$$

COZ017>023-064>068-251800-
...SOUTHWEST COLORADO...

CITY           SKY/WX    TMP DP  RH WIND       PRES   REMARKS
DURANGO        FAIR      67  45  45 SE9       30.32S
CORTEZ         PTSUNNY   71  47  42 W8        30.27R
PAGOSA SPRINGS FAIR      64  38  38 S6        30.38F
TELLURIDE      FAIR      62  36  38 CALM      30.45F
WOLF CREEK PAS FAIR      45  37  76 S9        30.64S
$$

COZ009-010-012-014-032>034-037-058>063-251800-
...CENTRAL COLORADO...

CITY           SKY/WX    TMP DP  RH WIND       PRES   REMARKS
ASPEN          FAIR      68  34  28 N8        30.31F
BUENA VISTA    FAIR      59  42  54 E5        30.37F
COPPER MTN     CLOUDY    50  27  40 NW9       30.59S
BERTHOUD PASS  PTSUNNY   39  27  60 N7        30.60S
COTTONWOOD PAS FAIR      55  43  62 E7        30.47F
GUNNISON       FAIR      59  41  51 CALM      30.40F
KREMMLING      FAIR      61  36  39 NE5       30.33F
LEADVILLE      FAIR      54  33  45 CALM      30.44F
MONARCH PASS   FAIR      45  34  65 SW13G20   30.71R
SALIDA         FAIR      62  46  55 CALM      30.42F
SUNLIGHT       FAIR      54  37  54 NE6G23    30.55R
WILKERSON PASS FAIR      48  32  53 CALM      30.59S
$$

COZ069>075-251800-
...SAN LUIS VALLEY/SANGRE DE CRISTO MOUNTAINS...

CITY           SKY/WX    TMP DP  RH WIND       PRES   REMARKS
ALAMOSA        FAIR      61  45  55 VRB5      30.37F
LA VETA PASS   FAIR      54  41  62 SW3       30.52S
SAGUACHE       FAIR      59  45  58 S6        30.40F
$$

COZ035-036-038>040-251800-
...NORTHERN COLORADO FRONT RANGE...

CITY           SKY/WX    TMP DP  RH WIND       PRES   REMARKS
DENVER INTL AP FAIR      59  46  62 VRB6      30.31S
DMNS CITY PARK   N/A     61  44  54 NE7G16    30.30F
AURORA         MOSUNNY   59  46  61 VRB6      30.32S
FRONT RANGE AP MOSUNNY   61  48  63 N9        30.32S
ERIE MUNI ARPT FAIR      63  41  43 NW8       30.30F
BOULDER MUN AP FAIR      63  43  48 NE12      30.31S
CENTENNIAL     FAIR      61  45  55 N9        30.32S
BROOMFIELD     MOSUNNY   63  45  51 N17       30.32F
FORT COLLINS   FAIR      63  45  51 NE6       30.30F
LONGMONT       FAIR      67  43  41 N7        30.32S
$$

COZ041-046-047-076>085-087-088-251800-
...PIKES PEAK/PALMER DIVIDE AND SOUTHERN FOOTHILLS...

CITY           SKY/WX    TMP DP  RH WIND       PRES   REMARKS
COLO. SPRINGS  FAIR      66  43  43 SE10      30.32S
A. F. ACADEMY  FAIR      62  43  50 VRB5      30.32S
SCHRIEVER AFB  NOT AVBL
ELLICOTT       LGT SNOW N/A N/A N/A VRB3      30.31S
FALCON         FAIR      64  43  46 S6        30.36S
FORT CARSON    NOT AVBL
LIMON          FAIR      68  35  29 SE6       30.29S
MONUMENT HILL  FAIR      59  45  58 N3        30.37S
TRINIDAD       FAIR      67  46  47 E7        30.29F
$$

COZ042>045-048>051-090-091-251800-
...NORTHEAST COLORADO...

CITY           SKY/WX    TMP DP  RH WIND       PRES   REMARKS
GREELEY ARPT   FAIR      66  39  37 E10G16    30.29F
AKRON          FAIR      67  40  37 E12       30.29R
BURLINGTON     FAIR      69  44  40 E12G18    30.26F
WRAY           NOT AVBL
STERLING       FAIR      68  43  40 NE6       30.26F
HOLYOKE        FAIR      73  46  38 NE9       30.28S
FORT MORGAN    FAIR      68  41  37 NE7       30.30S
$$

COZ086-089-092>099-251800-
...SOUTHEAST COLORADO...

CITY           SKY/WX    TMP DP  RH WIND       PRES   REMARKS
PUEBLO         FAIR      69  47  45 SE9       30.26S
LA JUNTA       FAIR      70  47  43 VRB5      30.24F
LAMAR          FAIR      71  56  58 E7        30.21F
SPRINGFIELD      N/A     67  56  67 CALM      30.24F
$$



USA.gov is the U.S. government's official web portal to all federal, state and local government web resources and services.